When you browse on this site, cookies collect data to enhance your experience and personalize the content and advertising you see.
Visit our Privacy Policy to learn more. By continuing to use the site, you agree to this use of cookies and data.
  • In Spain
  • List of Countries
  • For 7 days
  • Water Temperature
  • Weather Map
  • Weather Widgets
  • user-avatar
    Login

    Hourly Weather Penaflor

    Today, 25 January, Saturday

    Time Temperature Precipitation Wind Pressure Humidity
    00:00 +16°C° 0 mm 0 mps 729 mmHg 66%
    01:00 +15°C° 0 mm 0 mps 729 mmHg 66%
    02:00 +15°C° 0 mm 0 mps 729 mmHg 66%
    03:00 +15°C° 0 mm 0 mps 729 mmHg 67%
    04:00 +15°C° 0 mm 0 mps 729 mmHg 68%
    05:00 +17°C° 0 mm 0 mps 729 mmHg 59%
    06:00 +20°C° 0 mm 0 mps 730 mmHg 50%
    07:00 +22°C° 0 mm 0 mps 730 mmHg 41%
    08:00 +27°C° 0 mm 1 mps 730 mmHg 35%
    09:00 +30°C° 0 mm 2 mps 730 mmHg 29%
    10:00 +33°C° 0 mm 3 mps 731 mmHg 23%
    11:00 +35°C° 0 mm 3 mps 731 mmHg 21%
    12:00 +36°C° 0 mm 4 mps 731 mmHg 18%
    13:00 +39°C° 0 mm 5 mps 731 mmHg 15%
    14:00 +37°C° 0 mm 5 mps 731 mmHg 16%
    15:00 +36°C° 0 mm 5 mps 730 mmHg 17%
    16:00 +35°C° 0 mm 5 mps 730 mmHg 18%
    17:00 +30°C° 0 mm 4 mps 730 mmHg 24%
    18:00 +27°C° 0 mm 3 mps 730 mmHg 30%
    19:00 +24°C° 0 mm 2 mps 730 mmHg 36%
    20:00 +22°C° 0 mm 1 mps 730 mmHg 41%
    21:00 +21°C° 0 mm 1 mps 730 mmHg 46%
    22:00 +17°C° 0 mm 0 mps 730 mmHg 52%
    23:00 +17°C° 0 mm 0 mps 730 mmHg 51%

    Tomorrow, 26 January, Sunday

    Time Temperature Precipitation Wind Pressure Humidity
    00:00 +17°C° 0 mm 0 mps 730 mmHg 50%
    01:00 +17°C° 0 mm 0 mps 729 mmHg 48%
    02:00 +16°C° 0 mm 0 mps 730 mmHg 50%
    03:00 +16°C° 0 mm 0 mps 730 mmHg 51%
    04:00 +15°C° 0 mm 0 mps 730 mmHg 53%
    05:00 +18°C° 0 mm 0 mps 730 mmHg 46%
    06:00 +20°C° 0 mm 0 mps 731 mmHg 39%
    07:00 +24°C° 0 mm 1 mps 731 mmHg 33%
    08:00 +27°C° 0 mm 1 mps 732 mmHg 28%
    09:00 +30°C° 0 mm 2 mps 732 mmHg 23%
    10:00 +32°C° 0 mm 2 mps 732 mmHg 18%
    11:00 +35°C° 0 mm 3 mps 732 mmHg 17%
    12:00 +36°C° 0 mm 4 mps 732 mmHg 15%
    13:00 +38°C° 0 mm 4 mps 732 mmHg 14%
    14:00 +37°C° 0 mm 5 mps 731 mmHg 15%
    15:00 +36°C° 0 mm 5 mps 731 mmHg 17%
    16:00 +35°C° 0 mm 5 mps 730 mmHg 18%
    17:00 +32°C° 0 mm 4 mps 730 mmHg 27%
    18:00 +27°C° 0 mm 3 mps 730 mmHg 36%
    19:00 +23°C° 0 mm 2 mps 730 mmHg 45%
    20:00 +22°C° 0 mm 1 mps 730 mmHg 51%
    21:00 +21°C° 0 mm 1 mps 730 mmHg 57%
    22:00 +17°C° 0 mm 0 mps 730 mmHg 63%
    23:00 +17°C° 0 mm 0 mps 730 mmHg 61%

    Day after tomorrow, 27 January, Monday

    Time Temperature Precipitation Wind Pressure Humidity
    00:00 +17°C° 0 mm 0 mps 729 mmHg 60%
    01:00 +17°C° 0 mm 0 mps 729 mmHg 59%
    02:00 +17°C° 0 mm 0 mps 729 mmHg 59%
    03:00 +17°C° 0 mm 0 mps 729 mmHg 58%
    04:00 +17°C° 0 mm 0 mps 729 mmHg 57%
    05:00 +19°C° 0 mm 0 mps 729 mmHg 51%
    06:00 +21°C° 0 mm 0 mps 729 mmHg 44%
    07:00 +26°C° 0 mm 1 mps 729 mmHg 38%
    08:00 +28°C° 0 mm 1 mps 730 mmHg 34%
    09:00 +31°C° 0 mm 2 mps 730 mmHg 29%
    10:00 +34°C° 0 mm 2 mps 730 mmHg 25%
    11:00 +36°C° 0 mm 3 mps 730 mmHg 22%
    12:00 +37°C° 0 mm 4 mps 729 mmHg 20%
    13:00 +40°C° 0 mm 5 mps 729 mmHg 18%
    14:00 +37°C° 0 mm 5 mps 729 mmHg 21%
    15:00 +36°C° 0 mm 5 mps 729 mmHg 24%
    16:00 +35°C° 0 mm 6 mps 729 mmHg 27%
    17:00 +30°C° 0 mm 4 mps 729 mmHg 35%
    18:00 +27°C° 0 mm 3 mps 729 mmHg 44%
    19:00 +23°C° 0 mm 2 mps 729 mmHg 52%
    20:00 +22°C° 0 mm 1 mps 729 mmHg 58%
    21:00 +20°C° 0 mm 1 mps 729 mmHg 64%
    22:00 +17°C° 0 mm 0 mps 729 mmHg 70%
    23:00 +17°C° 0 mm 0 mps 728 mmHg 70%

    28 January, Tuesday

    Time Temperature Precipitation Wind Pressure Humidity
    00:00 +17°C° 0 mm 0 mps 728 mmHg 70%
    01:00 +16°C° 0 mm 0 mps 728 mmHg 70%
    02:00 +16°C° 0 mm 0 mps 728 mmHg 71%
    03:00 +16°C° 0 mm 0 mps 728 mmHg 72%
    04:00 +15°C° 0 mm 0 mps 728 mmHg 72%
    05:00 +18°C° 0 mm 0 mps 728 mmHg 64%
    06:00 +20°C° 0 mm 0 mps 728 mmHg 55%
    07:00 +24°C° 0 mm 1 mps 728 mmHg 47%
    08:00 +27°C° 0 mm 1 mps 728 mmHg 40%
    09:00 +29°C° 0 mm 2 mps 729 mmHg 33%
    10:00 +33°C° 0 mm 3 mps 729 mmHg 27%
    11:00 +34°C° 0 mm 4 mps 729 mmHg 25%
    12:00 +35°C° 0 mm 5 mps 729 mmHg 23%
    13:00 +36°C° 0 mm 6 mps 729 mmHg 21%
    14:00 +35°C° 0 mm 6 mps 729 mmHg 21%
    15:00 +33°C° 0 mm 6 mps 729 mmHg 22%
    16:00 +32°C° 0 mm 5 mps 728 mmHg 22%
    17:00 +28°C° 0 mm 4 mps 728 mmHg 32%
    18:00 +24°C° 0 mm 3 mps 728 mmHg 41%
    19:00 +20°C° 0 mm 2 mps 729 mmHg 51%
    20:00 +18°C° 0 mm 2 mps 729 mmHg 57%
    21:00 +16°C° 0 mm 1 mps 729 mmHg 64%
    22:00 +14°C° 0 mm 0 mps 729 mmHg 70%
    23:00 +14°C° 0 mm 0 mps 728 mmHg 70%

    29 January, Wednesday

    Time Temperature Precipitation Wind Pressure Humidity
    00:00 +13°C° 0 mm 0 mps 728 mmHg 70%
    01:00 +13°C° 0 mm 0 mps 727 mmHg 70%
    02:00 +13°C° 0 mm 0 mps 728 mmHg 67%
    03:00 +14°C° 0 mm 0 mps 728 mmHg 65%
    04:00 +14°C° 0 mm 0 mps 728 mmHg 63%
    05:00 +16°C° 0 mm 0 mps 728 mmHg 56%
    06:00 +18°C° 0 mm 0 mps 729 mmHg 50%
    07:00 +20°C° 0 mm 0 mps 729 mmHg 43%
    08:00 +24°C° 0 mm 1 mps 729 mmHg 36%
    09:00 +27°C° 0 mm 2 mps 730 mmHg 30%
    10:00 +30°C° 0 mm 3 mps 730 mmHg 23%
    11:00 +31°C° 0 mm 3 mps 730 mmHg 22%
    12:00 +33°C° 0 mm 4 mps 730 mmHg 21%
    13:00 +35°C° 0 mm 5 mps 729 mmHg 20%
    14:00 +34°C° 0 mm 5 mps 729 mmHg 23%
    15:00 +33°C° 0 mm 5 mps 729 mmHg 26%
    16:00 +32°C° 0 mm 5 mps 729 mmHg 29%
    17:00 +28°C° 0 mm 4 mps 729 mmHg 39%
    18:00 +24°C° 0 mm 3 mps 729 mmHg 49%
    19:00 +20°C° 0 mm 2 mps 729 mmHg 59%
    20:00 +19°C° 0 mm 1 mps 729 mmHg 64%
    21:00 +18°C° 0 mm 1 mps 729 mmHg 69%
    22:00 +15°C° 0 mm 0 mps 729 mmHg 74%
    23:00 +14°C° 0 mm 0 mps 729 mmHg 74%

    30 January, Thursday

    Time Temperature Precipitation Wind Pressure Humidity
    00:00 +14°C° 0 mm 0 mps 728 mmHg 74%
    01:00 +14°C° 0 mm 0 mps 728 mmHg 74%
    02:00 +14°C° 0 mm 0 mps 728 mmHg 74%
    03:00 +14°C° 0 mm 0 mps 728 mmHg 73%
    04:00 +14°C° 0 mm 0 mps 728 mmHg 73%
    05:00 +16°C° 0 mm 0 mps 728 mmHg 65%
    06:00 +18°C° 0 mm 0 mps 728 mmHg 57%
    07:00 +20°C° 0 mm 0 mps 729 mmHg 49%
    08:00 +25°C° 0 mm 1 mps 729 mmHg 42%
    09:00 +28°C° 0 mm 2 mps 729 mmHg 35%
    10:00 +31°C° 0 mm 2 mps 730 mmHg 28%
    11:00 +33°C° 0 mm 3 mps 729 mmHg 25%
    12:00 +35°C° 0 mm 4 mps 729 mmHg 22%
    13:00 +37°C° 0 mm 5 mps 729 mmHg 19%
    14:00 +36°C° 0 mm 5 mps 729 mmHg 20%
    15:00 +35°C° 0 mm 5 mps 729 mmHg 21%
    16:00 +34°C° 0 mm 5 mps 729 mmHg 22%
    17:00 +29°C° 0 mm 4 mps 729 mmHg 30%
    18:00 +26°C° 0 mm 3 mps 729 mmHg 37%
    19:00 +21°C° 0 mm 2 mps 729 mmHg 45%
    20:00 +20°C° 0 mm 1 mps 729 mmHg 51%
    21:00 +19°C° 0 mm 1 mps 729 mmHg 57%
    22:00 +15°C° 0 mm 0 mps 729 mmHg 64%
    23:00 +15°C° 0 mm 0 mps 729 mmHg 63%
    Show more